Zurück zum Katalog

METEOR 2-7 DEB

AktivPO
NORAD 43300·DEBRIS·🇷🇺 Russia

Gestartet May 14, 1981 von Plesetsk Cosmodrome

Loading…

Nächste Überflüge (nächste 24 Stunden)

TLE

AktuellSource: Space-Track

Epoche: Sep 14, 2026, 12:20 UTC

1 43300U 81043X   26257.51393535  .00002118  00000-0  73251-3 0  9995
2 43300  81.2534 325.8438 0039412 118.8625 241.6524 14.35033691568107

Verfolge METEOR 2-7 DEB in Echtzeit mit AllMySat

Download on the App Store